Flag for Iceland Weather past 2 weeks in Keflavík, Iceland

Now
41 °F

Passing clouds.


Feels Like: 37 °F
Forecast: 40 / 46 °F
Wind: 6 mph from Northwest

Location: Keflavikurflugvollur

Current Time: May 25, 2015 at 4:02:23 AM

Latest Report: May 25, 2015 at 3:00 AM


Visibility: N/A

Pressure: 29.89 "Hg

Humidity: 81%

Dew point: 36 °F

Location of KeflavíkLocation

Historic Weather in Keflavík — Graph

°F

Keflavík temperature yesterday

Maximum temperature yesterday: 46 °F (at 12:30 PM)
Minimum temperature yesterday: 41 °F (at 12:00 AM)
Average temperature yesterday: 43 °F

Past Weeks' High & Low Weather Summary

 TemperatureHumidityPressure
High48 °F (May 13, 2:30 PM)100% (May 10, 4:00 AM)30.04 "Hg (May 10, 4:00 AM)
Low30 °F (May 11, 3:00 AM)42% (May 11, 2:30 PM)28.77 "Hg (May 15, 8:30 PM)
Average41 °F78%29.57 "Hg
* Reported May 10 2:00 AM — May 25 2:30 AM, Keflavík, Weather by CustomWeather, © 2015

Note: Actual official high and low records may vary slightly from our data, if they occured in-between our weather recording intervals... More about our weather records

Advertising

Keflavík weather history for previous 24 hours

 ConditionsComfort  
Time TempWeatherWind HumidityBarometerVisibility
2:30 AM
Mon, May 25
41 °FPassing clouds.7 mph81%29.89 "HgN/A
2:00 AM41 °FPassing clouds.9 mph81%29.89 "HgN/A
1:30 AM41 °FPassing clouds.9 mph81%29.89 "HgN/A
1:00 AM41 °FOvercast.14 mph81%29.89 "HgN/A
12:30 AM43 °FOvercast.15 mph71%29.89 "HgN/A
12:00 AM43 °FOvercast.15 mph76%29.86 "HgN/A
11:30 PM
Sun, May 24
43 °FPassing clouds.12 mph76%29.86 "HgN/A
11:00 PM43 °FPartly sunny.13 mph76%29.86 "HgN/A
10:30 PM43 °FPartly sunny.13 mph81%29.86 "HgN/A
10:00 PM43 °FBroken clouds.13 mph81%29.83 "HgN/A
9:30 PM43 °FBroken clouds.12 mph81%29.83 "HgN/A
9:00 PM43 °FBroken clouds.18 mph87%29.83 "HgN/A
8:30 PM43 °FBroken clouds.21 mph87%29.80 "HgN/A
8:00 PM45 °FBroken clouds.17 mph81%29.80 "HgN/A
7:30 PM45 °FBroken clouds.16 mph81%29.80 "HgN/A
7:00 PM45 °FPartly sunny.18 mph76%29.77 "HgN/A
6:30 PM45 °FPartly sunny.21 mph71%29.77 "HgN/A
6:00 PM45 °FPartly sunny.22 mph66%29.77 "HgN/A
5:30 PM45 °FPartly sunny.23 mph66%29.74 "HgN/A
5:00 PM45 °FPartly sunny.22 mph71%29.74 "HgN/A
4:30 PM43 °FPartly sunny.22 mph76%29.74 "HgN/A
4:00 PM45 °FMostly cloudy.22 mph76%29.71 "HgN/A
3:30 PM45 °FBroken clouds.22 mph76%29.71 "HgN/A
3:00 PM45 °FBroken clouds.23 mph81%29.68 "HgN/A
2:30 PM45 °FBroken clouds.22 mph81%29.68 "HgN/A
2:00 PM46 °FBroken clouds.24 mph82%29.68 "HgN/A
1:30 PM45 °FBroken clouds.25 mph81%29.65 "HgN/A
1:00 PM45 °FBroken clouds.22 mph81%29.65 "HgN/A
12:30 PM46 °FBroken clouds.22 mph76%29.65 "HgN/A
12:00 PM45 °FBroken clouds.21 mph81%29.62 "HgN/A
11:30 AM45 °FBroken clouds.20 mph81%29.62 "HgN/A
11:00 AM45 °FScattered clouds.18 mph81%29.59 "HgN/A
10:30 AM45 °FBroken clouds.20 mph87%29.59 "HgN/A
10:00 AM45 °FPartly sunny.20 mph81%29.59 "HgN/A
9:30 AM45 °FBroken clouds.21 mph81%29.56 "HgN/A
9:00 AM43 °FBroken clouds.20 mph87%29.56 "HgN/A
8:30 AM45 °FPartly sunny.18 mph81%29.53 "HgN/A
8:00 AM43 °FBroken clouds.20 mph93%29.53 "HgN/A
7:30 AM43 °FPartly sunny.18 mph93%29.50 "HgN/A
7:00 AM43 °FPartly sunny.18 mph93%29.50 "HgN/A
6:30 AM41 °FPartly sunny.18 mph93%29.47 "HgN/A
6:00 AM41 °FPartly sunny.17 mph93%29.47 "HgN/A
5:30 AM41 °FPartly sunny.20 mph100%29.45 "HgN/A
5:00 AM43 °FBroken clouds.16 mph93%29.45 "HgN/A
4:30 AM41 °FPartly sunny.15 mph100%29.42 "HgN/A
4:00 AM41 °FBroken clouds.16 mph100%29.42 "HgN/A
Weather by CustomWeather, © 2015

See weather overviewHow to use our weather pages